[[{"header":{"parameterUnit":"m.s-1","parameterCategory":1,"la1":30.2991,"la2":30.254,"lo1":-89.0895,"lo2":-89.0444,"dy":0.0017,"dx":0.0017,"nx":28,"ny":28,"refTime":"2025-01-18T03:00:00:Z","depth":0,"parameterNumber":2,"parameterNumberName":"U-component_of_WINDS"},"data":[0,0,0,0,0,0,0,0,0,0,0,0,0,0,0,0,0,0,0,0,0,0,0,0,0,0,0,0,0,0,0,0,0,0,0,0,0,0,0,0,0,0,0,0,0,0,0,0,0,0,0,0,0,0,0,0,0,0,3.9224,3.9224,0,3.9293,3.9294,3.9295,3.9241,3.9239,3.9236,3.9234,3.9307,3.9311,3.9315,0,0,0,0,0,0,0,0,0,0,0,0,0,3.9047,3.9051,3.9224,3.9224,3.9225,3.9293,3.9294,3.9295,3.9242,3.9239,3.9236,3.9233,3.9305,3.931,3.9315,0,0,0,0,0,0,0,0,0,0,0,0,0,3.9121,3.9052,3.9223,3.9207,3.9206,3.9293,3.9294,3.9295,3.9242,3.9239,3.9235,3.9232,3.9304,3.931,3.9316,3.9423,0,0,3.9334,3.9337,0,0,0,0,0,0,0,0,3.9117,3.9128,3.9208,3.9208,3.9207,3.9255,3.9258,3.9338,3.9243,3.9228,3.9234,3.923,3.9292,3.9299,3.932,3.9426,3.9429,3.9335,3.9339,3.9341,3.9343,0,0,0,0,0,0,0,3.9112,3.9124,3.9251,3.921,3.9209,3.9197,3.9203,3.9273,3.9279,3.9229,3.9226,3.9235,3.9291,3.9314,3.9321,3.943,3.9335,3.934,3.9344,3.9346,3.9632,3.9635,0,0,0,0,0,0,3.9108,3.912,3.9249,3.9253,3.9153,3.9203,3.921,3.9243,3.9278,3.928,3.9238,3.9232,3.9305,3.9314,3.9323,3.9454,3.9341,3.9347,3.935,3.9628,3.9632,3.9637,0,0,0,0,0,0,3.9105,3.912,3.9246,3.9186,3.9201,3.9209,3.9247,3.9246,3.9269,3.9284,3.9285,3.926,3.9303,3.9315,3.9399,3.9456,3.935,3.9355,3.9623,3.9629,3.9634,3.9714,0,0,0,0,0,0,3.91,3.9119,3.9159,3.9187,3.9204,3.932,3.925,3.925,3.928,3.9273,3.9305,3.9307,3.9301,3.939,3.9405,3.9462,3.936,3.9618,3.9626,3.9633,3.9707,3.9722,3.9735,0,0,0,0,0,3.9094,3.9179,3.9162,3.9177,3.9255,3.9324,3.9333,3.9325,3.9284,3.9326,3.9336,3.9306,3.9446,3.9399,3.9416,3.9475,3.9615,3.9624,3.9632,3.97,3.9719,3.9735,0,0,0,0,0,0,3.9157,3.9182,3.9163,3.926,3.929,3.9314,3.9366,3.9344,3.9387,3.9379,3.9366,3.9374,3.9463,3.9477,3.9424,3.9582,3.9524,3.9537,3.957,3.9588,3.9602,3.9599,3.9365,0,0,0,0,0,3.9182,3.9236,3.9254,3.9338,3.9354,3.9358,3.9387,3.9378,3.9409,3.9421,3.9437,3.9469,3.9521,3.9555,3.9603,3.9708,3.9715,3.9757,3.9771,3.9783,3.9795,3.9854,3.9874,3.9665,3.9665,3.9665,0,0,3.9235,3.9255,3.929,3.9351,3.9373,3.943,3.9369,3.943,3.9473,3.9431,3.9512,3.9525,3.956,3.9656,3.9699,3.967,3.9853,3.9794,3.9803,3.9809,3.9865,3.9885,3.9902,3.9671,3.967,3.9669,0,0,3.9361,3.9381,3.9454,3.9477,3.9512,3.9514,3.9532,3.956,3.9567,3.9648,3.9619,3.9669,3.9757,3.9784,3.9809,3.9947,3.9923,3.9962,4.0038,4.0097,4.0113,4.0128,4.018,4.0198,3.9974,3.9974,3.9974,0,3.9423,3.9507,3.9494,3.9559,3.9588,3.9552,3.9627,3.9651,3.97,3.9721,3.9688,3.9799,3.982,3.9923,3.9957,3.9977,3.9999,3.996,4.0112,4.0126,4.0139,4.0189,4.0208,3.9979,3.9978,3.9978,3.9977,0,3.9582,3.9641,3.9696,3.9745,3.9779,3.9849,3.9848,3.9885,3.9872,3.9878,3.9963,3.9986,4.004,4.0063,4.0051,4.0166,4.0147,4.0113,4.0055,4.0165,4.0211,4.023,3.9986,3.9984,3.9983,3.9981,0,0,3.9752,3.9793,3.9814,3.9836,3.9872,3.9918,3.9986,4.0039,4.0072,4.0107,4.0166,4.0242,4.0211,4.024,4.023,4.0281,4.0393,4.0241,4.0242,4.0271,4.0524,4.0552,4.0574,4.0376,4.0379,4.0382,4.0522,0,3.9882,4.0002,3.9993,4.0106,4.0162,4.0128,4.0189,4.0218,4.0225,4.0274,4.0282,4.0338,4.0291,4.0309,4.0357,4.0369,4.0444,4.0358,4.0433,4.0436,4.0428,4.0598,4.0627,4.0758,4.054,4.0543,4.0545,0,4.005,4.0092,4.0211,4.0241,4.0264,4.0318,4.0366,4.0412,4.0446,4.0448,4.0481,4.0463,4.0534,4.0473,4.0572,4.0514,4.0543,4.0554,4.0559,4.0568,4.0499,4.0614,4.0799,4.082,4.0573,4.0571,4.0569,0,4.0167,4.0252,4.0335,4.0355,4.039,4.043,4.0447,4.0476,4.0509,4.0551,4.0572,4.0622,4.065,4.069,4.0687,4.0642,4.0789,4.0726,4.0795,4.0795,4.0829,4.0828,4.1025,4.0843,4.0843,4.0843,4.0842,0,4.0315,4.039,4.0388,4.0439,4.0523,4.0512,4.0595,4.0608,4.0634,4.0689,4.0662,4.0714,4.0706,4.0758,4.0756,4.084,4.0852,4.0857,4.0857,4.0862,4.0862,4.0883,4.0875,4.0848,4.0847,4.0846,4.0845,0,4.046,4.0461,4.055,4.0576,4.0585,4.0646,4.0669,4.0719,4.0723,4.0793,4.0808,4.0817,4.0877,4.0878,4.0946,4.0945,4.1049,4.1036,4.1039,4.1037,4.1107,4.1102,4.1328,4.1358,4.1154,4.1155,4.1157,0,4.0556,4.0613,4.0646,4.0681,4.07,4.0755,4.0789,4.078,4.0816,4.0859,4.0904,4.0962,4.1008,4.1106,4.1119,4.1172,4.1163,4.1238,4.1171,4.1175,4.1168,4.1166,4.1173,4.1252,4.1255,4.1256,4.1258,0,4.0728,4.0726,4.0775,4.0825,4.0866,4.0904,4.094,4.097,4.0966,4.1008,4.1069,4.1105,4.1176,4.1234,4.1286,4.1304,4.1282,4.1279,4.1298,4.1306,4.1306,4.131,4.1078,4.1274,4.1273,4.1271,4.1271,4.127,4.0854,4.0905,4.0936,4.0992,4.1018,4.1053,4.1101,4.1112,4.1163,4.122,4.1212,4.1281,4.1314,4.1381,4.1404,4.1459,4.1433,4.146,4.1468,4.1475,4.1485,4.1294,4.1468,4.1467,4.1467,4.1467,4.1466,0,4.1028,4.1047,4.1098,4.115,4.1194,4.1167,4.1206,4.1245,4.1307,4.1339,4.1385,4.1457,4.1514,4.1532,4.1587,4.1628,4.162,4.1643,4.1642,4.1647,4.1503,4.1482,4.165,4.165,4.165,4.165,4.165,4.165,4.1124,4.1209,4.1211,4.1309,4.1326,4.1394,4.1419,4.1451,4.1477,4.1559,4.1606,4.1617,4.1644,4.1702,4.1753,4.1757,4.178,4.181,4.181,4.1675,4.1657,4.164,4.162,4.1814,4.1814,4.1949,4.1951,4.1952]},{"header":{"parameterUnit":"m.s-1","parameterCategory":1,"la1":30.2991,"la2":30.254,"lo1":-89.0895,"lo2":-89.0444,"dy":0.0017,"dx":0.0017,"nx":28,"ny":28,"refTime":"2025-01-18T03:00:00:Z","depth":0,"parameterNumber":3,"parameterNumberName":"V-component_of_WINDS"},"data":[0,0,0,0,0,0,0,0,0,0,0,0,0,0,0,0,0,0,0,0,0,0,0,0,0,0,0,0,0,0,0,0,0,0,0,0,0,0,0,0,0,0,0,0,0,0,0,0,0,0,0,0,0,0,0,0,0,0,-2.8936,-2.8935,0,-2.8911,-2.891,-2.891,-2.8913,-2.8913,-2.8914,-2.8914,-2.8885,-2.8884,-2.8883,0,0,0,0,0,0,0,0,0,0,0,0,0,-2.8984,-2.8983,-2.8936,-2.8935,-2.8935,-2.8911,-2.891,-2.891,-2.8913,-2.8913,-2.8914,-2.8914,-2.8886,-2.8884,-2.8883,0,0,0,0,0,0,0,0,0,0,0,0,0,-2.8961,-2.8983,-2.8936,-2.8933,-2.8933,-2.8911,-2.891,-2.891,-2.8913,-2.8913,-2.8914,-2.8914,-2.8886,-2.8884,-2.8883,-2.886,0,0,-2.8878,-2.8877,0,0,0,0,0,0,0,0,-2.8963,-2.896,-2.8934,-2.8934,-2.8933,-2.8916,-2.8917,-2.8893,-2.8913,-2.892,-2.8914,-2.8915,-2.8895,-2.8892,-2.8886,-2.8859,-2.8857,-2.8877,-2.8876,-2.8876,-2.8875,0,0,0,0,0,0,0,-2.8964,-2.8961,-2.8926,-2.8934,-2.8933,-2.8933,-2.8931,-2.8912,-2.8904,-2.892,-2.892,-2.8917,-2.8894,-2.8888,-2.8886,-2.8857,-2.8877,-2.8876,-2.8875,-2.8874,-2.8812,-2.8811,0,0,0,0,0,0,-2.8967,-2.8962,-2.8926,-2.8925,-2.895,-2.8932,-2.8929,-2.892,-2.8904,-2.8903,-2.8917,-2.8917,-2.889,-2.8888,-2.8884,-2.8858,-2.8876,-2.8874,-2.8873,-2.8812,-2.8812,-2.8811,0,0,0,0,0,0,-2.8968,-2.8963,-2.8927,-2.8943,-2.8939,-2.893,-2.8921,-2.892,-2.8913,-2.8902,-2.89,-2.8911,-2.8891,-2.8887,-2.8867,-2.8857,-2.8873,-2.8872,-2.8813,-2.8812,-2.8811,-2.8804,0,0,0,0,0,0,-2.8969,-2.8964,-2.8955,-2.8943,-2.8938,-2.891,-2.892,-2.8919,-2.8911,-2.8911,-2.8897,-2.8895,-2.8891,-2.8869,-2.8865,-2.8855,-2.887,-2.8814,-2.8813,-2.8812,-2.8805,-2.8803,-2.8801,0,0,0,0,0,-2.8971,-2.8953,-2.8955,-2.895,-2.8927,-2.891,-2.8907,-2.8903,-2.891,-2.8901,-2.8894,-2.8895,-2.8859,-2.8867,-2.8862,-2.8852,-2.8814,-2.8813,-2.8812,-2.8806,-2.8804,-2.8801,0,0,0,0,0,0,-2.8962,-2.8951,-2.8953,-2.8931,-2.8922,-2.891,-2.8899,-2.8901,-2.8888,-2.8889,-2.8885,-2.8881,-2.8861,-2.8854,-2.8864,-2.883,-2.8838,-2.8835,-2.8835,-2.8832,-2.8831,-2.8832,-2.8869,0,0,0,0,0,-2.8958,-2.8946,-2.8936,-2.8918,-2.8913,-2.8907,-2.8899,-2.8898,-2.8887,-2.8883,-2.8875,-2.8864,-2.885,-2.8841,-2.8827,-2.8805,-2.8802,-2.8795,-2.8793,-2.8792,-2.8789,-2.8778,-2.8775,-2.8806,-2.8806,-2.8806,0,0,-2.8949,-2.8941,-2.8933,-2.8916,-2.8909,-2.8896,-2.8904,-2.8889,-2.8879,-2.888,-2.8861,-2.8855,-2.8843,-2.8822,-2.8812,-2.8815,-2.8781,-2.879,-2.8789,-2.8787,-2.8777,-2.8774,-2.8771,-2.8805,-2.8805,-2.8806,0,0,-2.8925,-2.8918,-2.8903,-2.8896,-2.8885,-2.8882,-2.8878,-2.8867,-2.8864,-2.8845,-2.8846,-2.8834,-2.881,-2.8802,-2.8795,-2.8771,-2.8772,-2.8767,-2.8756,-2.8745,-2.8743,-2.8741,-2.8733,-2.873,-2.8765,-2.8765,-2.8765,0,-2.8915,-2.8896,-2.8895,-2.8881,-2.8873,-2.8876,-2.8861,-2.8853,-2.8838,-2.8833,-2.8838,-2.8809,-2.8801,-2.8779,-2.8773,-2.8767,-2.8763,-2.8768,-2.8744,-2.8742,-2.8739,-2.8732,-2.8729,-2.8764,-2.8764,-2.8764,-2.8764,0,-2.8884,-2.8871,-2.886,-2.8847,-2.8839,-2.8824,-2.882,-2.8812,-2.8812,-2.8808,-2.879,-2.878,-2.8766,-2.8761,-2.8759,-2.8739,-2.8741,-2.8745,-2.8752,-2.8736,-2.8729,-2.8726,-2.8763,-2.8764,-2.8764,-2.8764,0,0,-2.8853,-2.8842,-2.8838,-2.8833,-2.8822,-2.8812,-2.8798,-2.8785,-2.8779,-2.8768,-2.8757,-2.8738,-2.8742,-2.8733,-2.8732,-2.8722,-2.8706,-2.8727,-2.8727,-2.8724,-2.8683,-2.8681,-2.8678,-2.8707,-2.8706,-2.8706,-2.8685,0,-2.8829,-2.8805,-2.8804,-2.8782,-2.8771,-2.8774,-2.8762,-2.8754,-2.8751,-2.874,-2.8736,-2.8723,-2.8729,-2.8724,-2.8715,-2.871,-2.8697,-2.8711,-2.8695,-2.8695,-2.8699,-2.8674,-2.8671,-2.8652,-2.8682,-2.8681,-2.8681,0,-2.8797,-2.8788,-2.8766,-2.8759,-2.8754,-2.8743,-2.8733,-2.8723,-2.8714,-2.8712,-2.8705,-2.8705,-2.8691,-2.8699,-2.868,-2.8689,-2.8683,-2.868,-2.8679,-2.8677,-2.8687,-2.8672,-2.8645,-2.8642,-2.8677,-2.8677,-2.8677,0,-2.8777,-2.876,-2.8744,-2.874,-2.8731,-2.8724,-2.872,-2.8712,-2.8706,-2.8696,-2.8692,-2.8681,-2.8674,-2.8666,-2.8663,-2.8669,-2.8644,-2.8652,-2.8642,-2.8642,-2.8636,-2.8636,-2.8608,-2.8632,-2.8632,-2.8632,-2.8632,0,-2.8751,-2.8737,-2.8736,-2.8726,-2.8711,-2.8711,-2.8696,-2.8692,-2.8686,-2.8676,-2.8678,-2.8668,-2.8666,-2.8655,-2.8653,-2.8638,-2.8635,-2.8633,-2.8633,-2.8633,-2.8634,-2.8629,-2.863,-2.8631,-2.8631,-2.8632,-2.8632,0,-2.8726,-2.8725,-2.8708,-2.8703,-2.8701,-2.869,-2.8685,-2.8676,-2.8674,-2.8661,-2.8658,-2.8654,-2.8642,-2.8639,-2.8625,-2.8623,-2.8606,-2.8607,-2.8609,-2.8609,-2.86,-2.8601,-2.8567,-2.8563,-2.8589,-2.8589,-2.8589,0,-2.8709,-2.8699,-2.8693,-2.8687,-2.8683,-2.8673,-2.8667,-2.8667,-2.866,-2.8651,-2.8643,-2.8633,-2.8624,-2.8605,-2.8601,-2.859,-2.8591,-2.858,-2.8589,-2.859,-2.8591,-2.8592,-2.8591,-2.8578,-2.8578,-2.8577,-2.8577,0,-2.8679,-2.868,-2.8671,-2.8663,-2.8656,-2.8649,-2.8643,-2.8638,-2.8637,-2.8629,-2.8619,-2.8612,-2.8599,-2.8588,-2.8578,-2.8573,-2.8575,-2.8575,-2.8572,-2.8572,-2.8574,-2.8574,-2.8605,-2.8575,-2.8575,-2.8576,-2.8576,-2.8576,-2.8658,-2.865,-2.8645,-2.8636,-2.8632,-2.8626,-2.8618,-2.8616,-2.8607,-2.8597,-2.8597,-2.8586,-2.8579,-2.8566,-2.8562,-2.8552,-2.8556,-2.8551,-2.855,-2.8549,-2.8549,-2.8576,-2.855,-2.855,-2.855,-2.8551,-2.8551,0,-2.8629,-2.8627,-2.8618,-2.861,-2.8604,-2.8608,-2.8601,-2.8595,-2.8585,-2.858,-2.8572,-2.856,-2.8551,-2.8546,-2.8537,-2.853,-2.8531,-2.8528,-2.8528,-2.8528,-2.8546,-2.855,-2.8528,-2.8528,-2.8528,-2.8528,-2.8528,-2.8528,-2.8613,-2.86,-2.86,-2.8585,-2.8583,-2.8573,-2.8569,-2.8564,-2.856,-2.8547,-2.854,-2.8538,-2.8533,-2.8523,-2.8515,-2.8514,-2.851,-2.8507,-2.8506,-2.8524,-2.8526,-2.8528,-2.8532,-2.8506,-2.8506,-2.8489,-2.8488,-2.8488]}]]